Billings, MT

6:42 PM MDT on August 17, 2017 (GMT -0600)
Billings Logan International

Weather History for KBIL - July, 2012

Change the Weather History Date:

Saturday, July 7, 2012

  Actual Average Record
Temperature  
Mean Temperature 78 °F 71 °F  
Max Temperature 96 °F 85 °F 101 °F (1989)
Min Temperature 60 °F 58 °F 42 °F (1952)
Degree Days  
Heating Degree Days 0 1  
Month to date heating degree days 0 7  
Since 1 June heating degree days 35 103  
Since 1 July heating degree days 0 7  
Cooling Degree Days 13 7  
Month to date cooling degree days 74 45  
Year to date cooling degree days 261 147  
Since 1 June cooling degree days 227 130  
Growing Degree Days 28 (Base 50)    
Moisture  
Dew Point 45 °F    
Average Humidity 39    
Maximum Humidity 64    
Minimum Humidity 13    
Precipitation  
Precipitation 0.00 in 0.04 in 1.11 in (2007)
Month to date precipitation 0.09 0.34  
Year to date precipitation 4.48 8.32  
Snow  
Snow 0.00 in 0.00 in 0.00 in (2002)
Month to date snowfall 0.0 0.0  
Since 1 June snowfall T 0.0  
Since 1 July snowfall 0.0 0.0  
Snow Depth 0.00 in    
Sea Level Pressure  
Sea Level Pressure 30.10 in    
Wind  
Wind Speed 7 mph (NE)    
Max Wind Speed 26 mph    
Max Gust Speed 31 mph    
Visibility 10 miles    
Events      
T = Trace of Precipitation, MM = Missing Value Source: NWS Daily Summary

Daily Weather History Graph

Daily Weather History Graph

Search for Another Location

Airport or City:

Trip Planner

Search our weather history database for the weather conditions in past years. The results will help you decide how hot, cold, wet, or windy it might be!

Date:

Astronomy

Jul. 07, 2012 Rise Set
Actual Time 5:32 AM MDT 9:05 PM MDT
Civil Twilight 4:54 AM MDT 9:42 PM MDT
Nautical Twilight 4:05 AM MDT 10:32 PM MDT
Astronomical Twilight 2:59 AM MDT 11:38 PM MDT
Moon 11:07 PM MDT (7/7) 10:17 AM MDT (7/7)
Length of Visible Light 16h 48m
Length of Day
15h 33m
Waning Gibbous, 81% of the Moon is Illuminated
Jul 7
Waning Gibbous
Jul 10
Last Quarter
Jul 18
New
Jul 26
First Quarter
Aug 1
Full

Hourly Weather History & Observations

Time (MDT) Temp. Dew Point Humidity Pressure Visibility Wind Dir Wind Speed Gust Speed Precip Events Conditions
12:53 AM 72.0 °F 42.1 °F 34% 30.08 in 10.0 mi Variable 3.5 mph - N/A   Clear
1:53 AM 71.1 °F 43.0 °F 36% 30.08 in 10.0 mi ENE 4.6 mph - N/A   Clear
2:53 AM 69.1 °F 43.0 °F 39% 30.09 in 10.0 mi North 4.6 mph - N/A   Clear
3:53 AM 64.0 °F 46.0 °F 52% 30.09 in 10.0 mi North 4.6 mph - N/A   Clear
4:53 AM 64.0 °F 48.0 °F 56% 30.11 in 10.0 mi Calm Calm - N/A   Clear
5:53 AM 60.1 °F 48.9 °F 67% 30.13 in 10.0 mi NNW 3.5 mph - N/A   Clear
6:53 AM 64.0 °F 46.0 °F 52% 30.14 in 10.0 mi Calm Calm - N/A   Clear
7:53 AM 68.0 °F 51.1 °F 55% 30.14 in 10.0 mi Calm Calm - N/A   Clear
8:53 AM 70.0 °F 51.1 °F 51% 30.14 in 10.0 mi SSW 3.5 mph - N/A   Clear
9:53 AM 73.9 °F 53.1 °F 48% 30.14 in 10.0 mi SSW 4.6 mph - N/A   Partly Cloudy
10:53 AM 80.1 °F 52.0 °F 38% 30.13 in 10.0 mi Variable 3.5 mph - N/A   Partly Cloudy
11:53 AM 84.0 °F 48.0 °F 28% 30.12 in 10.0 mi SSW 4.6 mph - N/A   Partly Cloudy
12:53 PM 88.0 °F 46.9 °F 24% 30.09 in 10.0 mi East 4.6 mph - N/A   Partly Cloudy
1:53 PM 91.0 °F 46.0 °F 21% 30.07 in 10.0 mi ENE 10.4 mph 18.4 mph N/A   Partly Cloudy
2:53 PM 93.9 °F 42.1 °F 17% 30.05 in 10.0 mi NE 12.7 mph 20.7 mph N/A   Partly Cloudy
3:53 PM 93.9 °F 37.0 °F 14% 30.05 in 10.0 mi East 15.0 mph 27.6 mph N/A   Partly Cloudy
4:53 PM 93.9 °F 36.0 °F 13% 30.04 in 10.0 mi East 13.8 mph 17.3 mph N/A   Scattered Clouds
5:53 PM 91.0 °F 35.1 °F 14% 30.06 in 10.0 mi East 8.1 mph - N/A   Scattered Clouds
6:21 PM 84.2 °F 44.6 °F 25% 30.20 in 10.0 mi North 9.2 mph 24.2 mph N/A   Scattered Clouds
6:53 PM 84.0 °F 45.0 °F 25% 30.09 in 10.0 mi North 21.9 mph 31.1 mph N/A   Partly Cloudy
7:53 PM 82.9 °F 45.0 °F 26% 30.09 in 10.0 mi North 13.8 mph 21.9 mph N/A   Partly Cloudy
8:53 PM 81.0 °F 45.0 °F 28% 30.09 in 10.0 mi NNE 8.1 mph - N/A   Partly Cloudy
9:53 PM 79.0 °F 44.1 °F 29% 30.10 in 10.0 mi NNE 5.8 mph - N/A   Scattered Clouds
10:53 PM 78.1 °F 44.1 °F 30% 30.10 in 10.0 mi NNE 3.5 mph - N/A   Partly Cloudy
11:53 PM 79.0 °F 43.0 °F 28% 30.09 in 10.0 mi South 12.7 mph - N/A   Partly Cloudy